Home   Weather   Naples   Past weeks

Flag for USA Past Weather in Naples, Florida, USA — Yesterday and Last 2 Weeks

Now
75 °F

Passing clouds.


Feels Like: 73 °F
Forecast: 76 / 87 °F
Wind: 3 mph from Southeast

Location: Naples Municipal

Current Time: Sep 28, 2016 at 8:04:33 AM

Latest Report: Sep 28, 2016 at 6:53 AM


Visibility: 10 mi

Pressure: 29.97 "Hg

Humidity: 96%

Dew Point: 74 °F

Location of NaplesLocation

Past Weather in Naples — Graph

°F

Naples Temperature Yesterday

Maximum temperature yesterday: 87 °F (at 12:53 PM)
Minimum temperature yesterday: 75 °F (at 3:53 AM)
Average temperature yesterday: 79 °F

High & Low Weather Summary for the Past Weeks

 TemperatureHumidityPressure
High92 °F (Sep 21, 11:53 AM)100% (Sep 17, 7:53 AM)30.06 "Hg (Sep 17, 7:53 AM)
Low75 °F (Sep 22, 7:53 PM)49% (Sep 21, 1:53 PM)29.90 "Hg (Sep 26, 5:53 PM)
Average82 °F80%29.98 "Hg
* Reported Sep 13 5:53 AM — Sep 28 5:53 AM, Naples, Weather by CustomWeather, © 2016

Note: Actual official high and low records may vary slightly from our data, if they occured in-between our weather recording intervals... More about our weather records

Advertising

Naples Weather History for the Previous 24 Hours

Scroll right to see more
 ConditionsComfort  
Time TempWeatherWind HumidityBarometerVisibility
5:53 AM
Wed, Sep 28
75 °FClear.No wind94%29.96 "Hg10 mi
4:53 AM75 °FClear.No wind96%29.95 "Hg10 mi
3:53 AM75 °FLight rain. Mostly cloudy.5 mph94%29.96 "Hg8 mi
2:53 AM76 °FPassing clouds.No wind100%29.96 "Hg10 mi
1:53 AM77 °FPartly cloudy.No wind100%29.96 "Hg10 mi
12:53 AM75 °FClear.5 mph96%29.97 "Hg10 mi
11:53 PM
Tue, Sep 27
75 °FPassing clouds.5 mph96%29.98 "Hg10 mi
10:53 PM76 °FClear.5 mph94%29.98 "Hg10 mi
9:53 PM76 °FClear.No wind94%29.96 "Hg10 mi
8:53 PM77 °FClear.No wind90%29.95 "Hg10 mi
7:53 PM78 °FPassing clouds.3 mph84%29.92 "Hg10 mi
6:53 PM78 °FPassing clouds.7 mph82%29.91 "Hg10 mi
5:53 PM80 °FScattered clouds.8 mph76%29.92 "Hg10 mi
4:53 PM77 °FThunderstorms. Partly sunny.12 mph88%29.92 "Hg10 mi
4:00 PM81 °FThundershowers. Partly sunny.13 mph72%29.93 "Hg10 mi
2:53 PM87 °FThundershowers. Sunny.8 mph65%29.92 "Hg10 mi
1:53 PM87 °FScattered clouds.7 mph61%29.92 "Hg10 mi
12:53 PM87 °FScattered clouds.3 mph63%29.94 "Hg10 mi
12:02 PM85 °FThunderstorms. Scattered clouds.8 mph68%29.96 "Hg10 mi
11:53 AM85 °FThundershowers. Scattered clouds.No wind68%29.96 "Hg10 mi
10:53 AM85 °FPassing clouds.3 mph70%29.96 "Hg10 mi
9:53 AM83 °FSunny.No wind72%29.96 "Hg10 mi
8:53 AM79 °FSunny.3 mph84%29.94 "Hg10 mi
Weather by CustomWeather, © 2016

See weather overviewHow to use our weather pages